User: anonymous   Login
Location: Delta State University
(33.7460°N, 90.7320°W)
Time: 22:32:59
(UTC-05:00)
Language:

Iridium 13 - Orbit

View from above orbital plane
View from above orbital plane
View from above satellite
View from above satellite

Ground track
Ground track

The orbit data is extracted from the following two-line orbital elements,

1 24840U 97030E   17117.79734223 +.00000201 +00000-0 +64746-4 0  9995
2 24840 086.3998 011.2825 0002210 078.3223 281.8221 14.34213086039729
Epoch (UTC): 27 April 2017 19:08:10
Eccentricity: 0.0002210
inclination: 86.3998°
perigee height: 776 km
apogee height: 779 km
right ascension of ascending node: 11.2825°
argument of perigee: 78.3223°
revolutions per day: 14.34213086
mean anomaly at epoch: 281.8221°
orbit number at epoch: 3972

The dashed part of the orbit path shows where the satellite is in the earth's shadow,  

DLR